Regional Weather Roundup
Issued by NWS

Home | Current Version | Previous Version | Graphics & Text | Print | Product List | Glossary On
Versions: 1 2 3 4 5 6 7 8 9 10 11 12 13 14 15 16 17 18 19 20 21 22 23 24 25 26 27 28 29 30 31 32 33 34 35 36 37 38 39 40 41 42 43 44 45 46 47 48 49 50
000
ASUS43 KMKX 230621
RWRWI

WISCONSIN REGIONAL WEATHER ROUNDUP
NATIONAL WEATHER SERVICE MILWAUKEE/SULLIVAN WI
100 AM CDT SAT SEP 23 2017

NOTE: "FAIR" INDICATES FEW OR NO CLOUDS BELOW 12,000 FEET WITH NO
SIGNIFICANT WEATHER AND/OR OBSTRUCTIONS TO VISIBILITY.

WIZ001-002-006>008-014>016-023>028-230700-
NORTHWEST WISCONSIN

CITY           SKY/WX    TMP DP  RH WIND       PRES   REMARKS
SUPERIOR ARPT  CLOUDY    61  61  99 CALM      29.80R
6HR MIN TEMP:  61; 6HR MAX TEMP:  66;

ASHLAND        CLEAR     78  67  68 S16G28    29.82R HX  80
6HR MIN TEMP:  67; 6HR MAX TEMP:  81;

HAYWARD        PTCLDY    76  66  71 S13       29.87F
6HR MIN TEMP:  74; 6HR MAX TEMP:  81;

SIREN          MOCLDY    79  66  62 SW13G20   29.85R HX  81
6HR MIN TEMP:  79; 6HR MAX TEMP:  83;

CUMBERLAND     CLEAR     73  64  73 S10       29.89S
RICE LAKE      CLEAR     75  65  70 S5        29.91S
6HR MIN TEMP:  74; 6HR MAX TEMP:  82;

CHETEK         CLEAR     75  67  75 S5        29.90S
6HR MIN TEMP:  74; 6HR MAX TEMP:  83;

LADYSMITH      CLEAR     74  67  77 S7        29.93F
6HR MIN TEMP:  74; 6HR MAX TEMP:  83;

EAU CLAIRE     PTCLDY    74  66  76 S8        29.90S
6HR MIN TEMP:  74; 6HR MAX TEMP:  85;

MENOMONIE      MOCLDY    79  65  62 S12G20    29.89F HX  81
6HR MIN TEMP:  74; 6HR MAX TEMP:  83;

NEW RICHMOND   CLOUDY    78  65  65 S9        29.88S
6HR MIN TEMP:  78; 6HR MAX TEMP:  84;

OSCEOLA        CLOUDY    79  67  66 S10G17    29.89S HX  81
6HR MIN TEMP:  79; 6HR MAX TEMP:  85;

$$

WIZ003>005-009-010-017-018-230700-
NORTH CENTRAL WISCONSIN

CITY           SKY/WX    TMP DP  RH WIND       PRES   REMARKS
MANITOWISH WTR NOT AVBL
ARBOR VITAE    CLEAR     72  66  82 SW8G18    29.96R
6HR MIN TEMP:  72; 6HR MAX TEMP:  74;

WOODRUFF       CLEAR     72  66  82 SW8G18    29.96R
6HR MIN TEMP:  72; 6HR MAX TEMP:  74;

RHINELANDER    CLEAR     73  66  78 SW9       29.97S
6HR MIN TEMP:  70; 6HR MAX TEMP:  74;

EAGLE RIVER    CLEAR     69  66  89 SW3       29.96R
6HR MIN TEMP:  67; 6HR MAX TEMP:  72;

LAND O LAKES   CLEAR     70  65  85 SW5       29.97R
6HR MIN TEMP:  69; 6HR MAX TEMP:  73;

PHILLIPS       MOCLDY    74  68  80 S9        29.93S
6HR MIN TEMP:  74; 6HR MAX TEMP:  79;

TOMAHAWK       CLEAR     69  64  82 CALM      29.97S
6HR MIN TEMP:  66; 6HR MAX TEMP:  73;

MEDFORD        CLEAR     67  64  90 S7        29.96S
6HR MIN TEMP:  67; 6HR MAX TEMP:  76;

MERRILL        CLEAR     75  66  74 SW3       29.97S
6HR MIN TEMP:  69; 6HR MAX TEMP:  76;

$$

WIZ029-030-035-036-043>047-230700-
CENTRAL WISCONSIN

CITY           SKY/WX    TMP DP  RH WIND       PRES   REMARKS
WAUSAU         CLEAR     75  65  70 S7        29.95F
6HR MIN TEMP:  75; 6HR MAX TEMP:  82;

MOSINEE        CLEAR     70  64  83 S7        29.99R
MARSHFIELD     CLEAR     71  64  78 S7        29.96S
6HR MIN TEMP:  70; 6HR MAX TEMP:  81;

STEVENS POINT  CLEAR     72  64  75 S7        29.98S
6HR MIN TEMP:  71; 6HR MAX TEMP:  79;

WAUPACA        CLEAR     70  67  89 CALM      29.99S
6HR MIN TEMP:  70; 6HR MAX TEMP:  83;

WAUTOMA        CLEAR     70  66  87 CALM      29.99S
6HR MIN TEMP:  68; 6HR MAX TEMP:  82;

WISC RAPIDS    CLEAR     76  65  68 S8        29.98S
6HR MIN TEMP:  74; 6HR MAX TEMP:  81;

CAMP DOUGLAS   CLEAR     75  65  72 S5        29.97S
6HR MIN TEMP:  73; 6HR MAX TEMP:  82;

$$

WIZ011>013-019>022-031-037>040-048>050-230700-
NORTHEAST WISCONSIN

CITY           SKY/WX    TMP DP  RH WIND       PRES   REMARKS
ANTIGO         CLEAR     68  65  89 S7        29.99F
6HR MIN TEMP:  66; 6HR MAX TEMP:  71;

SHAWANO        CLEAR     73  68  84 S5        29.97S
6HR MIN TEMP:  68; 6HR MAX TEMP:  75;

OCONTO         CLEAR     70  66  88 CALM      29.97R
6HR MIN TEMP:  67; 6HR MAX TEMP:  73;

STURGEON BAY   CLEAR     71  66  84 S10       29.98F
6HR MIN TEMP:  70; 6HR MAX TEMP:  72;

GREEN BAY      CLEAR     73  68  84 S8        29.98F
6HR MIN TEMP:  71; 6HR MAX TEMP:  79;

MANITOWOC      CLEAR     71  66  84 S8        30.01S
6HR MIN TEMP:  70; 6HR MAX TEMP:  72;

APPLETON       CLEAR     72  61  68 S7        29.99S
CLINTONVILLE   CLEAR     68  64  88 S3        29.98S
OSHKOSH        CLEAR     69  64  84 S8        30.00R
6HR MIN TEMP:  69; 6HR MAX TEMP:  82;

$$

WIZ032>034-041-042-053>061-230700-
SOUTHWEST WISCONSIN

CITY           SKY/WX    TMP DP  RH WIND       PRES   REMARKS
LA CROSSE      CLEAR     79  68  69 S12       29.93R HX  81
6HR MIN TEMP:  79; 6HR MAX TEMP:  89;

SPARTA         CLEAR     78  65  64 S9        29.96R HX  80
6HR MIN TEMP:  78; 6HR MAX TEMP:  83;

VIROQUA        CLEAR     73  67  83 S8        29.99S
6HR MIN TEMP:  73; 6HR MAX TEMP:  81;

BOSCOBEL       CLEAR     74  66  76 W3        29.98R
6HR MIN TEMP:  72; 6HR MAX TEMP:  87;

PRAIRIE DU CHI CLEAR     75  63  66 CALM      29.96F
6HR MIN TEMP:  74; 6HR MAX TEMP:  86;

PLATTEVILLE    CLEAR     72  67  84 SE6       30.01S
6HR MIN TEMP:  72; 6HR MAX TEMP:  82;

$$

WIZ056-057-062-063-064-067-068-230700-
SOUTH CENTRAL WISCONSIN

CITY           SKY/WX    TMP DP  RH WIND       PRES   REMARKS
REEDSBURG      CLEAR     74  65  74 S6        29.99S
6HR MIN TEMP:  73; 6HR MAX TEMP:  82;

BARABOO/DELLS  CLEAR     74  63  68 SW8       29.99F
6HR MIN TEMP:  73; 6HR MAX TEMP:  80;

LONE ROCK      CLEAR     68  66  93 E3        29.99S
6HR MIN TEMP:  67; 6HR MAX TEMP:  84;

MINERAL POINT  CLEAR     72  68  88 SE6       30.02S
MADISON        CLEAR     74  65  73 S6        30.01S
6HR MIN TEMP:  73; 6HR MAX TEMP:  85;

MIDDLETON      CLEAR     73  64  74 CALM      30.02S
6HR MIN TEMP:  70; 6HR MAX TEMP:  84;

WATERTOWN      CLEAR     69  65  86 CALM      30.02S
6HR MIN TEMP:  67; 6HR MAX TEMP:  82;

MONROE         CLEAR     73  63  68 S9        30.03S
JANESVILLE     CLEAR     70  61  73 S3        30.02S
$$

WIZ051-052-058>065-066-070>072-230700-
SOUTHEAST WISCONSIN

CITY           SKY/WX    TMP DP  RH WIND       PRES   REMARKS
MILWAUKEE      CLEAR     76  67  73 SW7       30.02F
6HR MIN TEMP:  76; 6HR MAX TEMP:  83;

WAUKESHA       CLEAR     72  63  73 S3        30.04F
MILWAUKEE/TIMM CLEAR     73  63  68 S6        30.03F
RACINE         CLEAR     74  67  78 S5        30.05S
6HR MIN TEMP:  73; 6HR MAX TEMP:  79;

BURLINGTON     CLEAR     63  63 100 CALM      30.04S
6HR MIN TEMP:  63; 6HR MAX TEMP:  80;

KENOSHA        CLEAR     74  66  76 S5        30.04S
6HR MIN TEMP:  74; 6HR MAX TEMP:  81;

FOND DU LAC    CLEAR     71  64  78 S7        30.01S
6HR MIN TEMP:  70; 6HR MAX TEMP:  81;

SHEBOYGAN      CLEAR     65  65 100 CALM      30.01F FOG
6HR MIN TEMP:  64; 6HR MAX TEMP:  77; 6HR PCP: TRACE;

WEST BEND        N/A     68  64  88 S3        30.03S
JUNEAU         CLEAR     69  64  82 S3        30.04R
6HR MIN TEMP:  69; 6HR MAX TEMP:  80;

$$

LSZ147-162-230700-
LAKE SUPERIOR

STATION/POSITION TIME  TEMP    WIND        PRES    WAVE
                       AIR SEA DIR/SP/G            HT/PER
                 (UTC) (F)     (DEG/KT/KT) (MB)    (FT/S)
W MID LAKE BUOY  0550   63 54  220/  6/  8 1009.2R   1/ 3
DEVILS ISLAND    0600   64     320/  6/  6 1009.3R
SAXON HARBOR     0540   81     190/ 13/ 21 1008.8R
$$

LMZ867-665-643>646-230700-
LAKE MICHIGAN

STATION/POSITION TIME  TEMP    WIND        PRES    WAVE
                       AIR SEA DIR/SP/G            HT/PER
                 (UTC)



USA.gov is the U.S. government's official web portal to all federal, state and local government web resources and services.